Time,TemperatureF,DewpointF,PressureIn,WindDirection,WindDirectionDegrees,WindSpeedMPH,WindSpeedGustMPH,Humidity,HourlyPrecipIn,Conditions,Clouds,dailyrainin,SoftwareType,DateUTC
2013-08-08 00:33:00,69.0,-99.9,-100.00,West,261,-999.0,-999.0,-999,0.05,,,-99.99,,2013-08-08 04:33:00,
2013-08-08 00:44:00,69.0,-99.9,-100.00,West,261,-999.0,-999.0,-999,0.05,,,-99.99,,2013-08-08 04:44:00,
2013-08-08 00:52:00,68.0,-99.9,-100.00,West,261,-999.0,-999.0,-999,-99.99,,,-99.99,,2013-08-08 04:52:00,
2013-08-08 01:33:00,68.0,-99.9,-100.00,West,261,-999.0,-999.0,-999,-99.99,,,-99.99,,2013-08-08 05:33:00,
2013-08-08 01:43:00,68.0,-99.9,-100.00,West,261,-999.0,-999.0,-999,-99.99,,,-99.99,,2013-08-08 05:43:00,
2013-08-08 02:32:00,68.0,-99.9,-100.00,West,261,-999.0,-999.0,-999,0.00,,,-99.99,,2013-08-08 06:32:00,
2013-08-08 02:43:00,68.0,-99.9,-100.00,West,261,-999.0,-999.0,-999,0.00,,,-99.99,,2013-08-08 06:43:00,
2013-08-08 02:52:00,68.0,-99.9,-100.00,West,261,-999.0,-999.0,-999,0.00,,,-99.99,,2013-08-08 06:52:00,
2013-08-08 03:32:00,69.0,-99.9,-100.00,West,261,-999.0,-999.0,-999,0.00,,,-99.99,,2013-08-08 07:32:00,
2013-08-08 03:43:00,69.0,-99.9,-100.00,West,261,-999.0,-999.0,-999,0.00,,,-99.99,,2013-08-08 07:43:00,
2013-08-08 03:52:00,69.0,-99.9,-100.00,West,261,-999.0,-999.0,-999,0.00,,,-99.99,,2013-08-08 07:52:00,
2013-08-08 04:32:00,69.0,-99.9,-100.00,West,261,-999.0,-999.0,-999,0.00,,,-99.99,,2013-08-08 08:32:00,
2013-08-08 04:43:00,69.0,-99.9,-100.00,West,261,-999.0,-999.0,-999,0.00,,,-99.99,,2013-08-08 08:43:00,
2013-08-08 04:52:00,68.0,-99.9,-100.00,West,261,-999.0,-999.0,-999,0.00,,,-99.99,,2013-08-08 08:52:00,
2013-08-08 05:32:00,68.0,-99.9,-100.00,West,261,-999.0,-999.0,-999,0.00,,,-99.99,,2013-08-08 09:32:00,
2013-08-08 05:43:00,68.0,-99.9,-100.00,West,261,-999.0,-999.0,-999,0.00,,,-99.99,,2013-08-08 09:43:00,
2013-08-08 05:52:00,68.0,-99.9,-100.00,West,261,-999.0,-999.0,-999,0.00,,,-99.99,,2013-08-08 09:52:00,
2013-08-08 06:33:00,68.0,-99.9,-100.00,West,261,-999.0,-999.0,-999,0.00,,,-99.99,,2013-08-08 10:33:00,
2013-08-08 06:43:00,68.0,-99.9,-100.00,West,261,-999.0,-999.0,-999,0.00,,,-99.99,,2013-08-08 10:43:00,
2013-08-08 06:52:00,68.0,-99.9,-100.00,West,261,-999.0,-999.0,-999,0.00,,,-99.99,,2013-08-08 10:52:00,
2013-08-08 07:32:00,68.0,-99.9,-100.00,West,261,-999.0,-999.0,-999,0.00,,,-99.99,,2013-08-08 11:32:00,
2013-08-08 07:43:00,68.0,-99.9,-100.00,West,261,-999.0,-999.0,-999,0.00,,,-99.99,,2013-08-08 11:43:00,
2013-08-08 07:52:00,68.0,-99.9,-100.00,West,261,-999.0,-999.0,-999,0.00,,,-99.99,,2013-08-08 11:52:00,
2013-08-08 08:32:00,68.0,-99.9,-100.00,West,261,-999.0,-999.0,-999,0.00,,,-99.99,,2013-08-08 12:32:00,
2013-08-08 08:43:00,68.0,-99.9,-100.00,West,261,-999.0,-999.0,-999,0.00,,,-99.99,,2013-08-08 12:43:00,
2013-08-08 08:52:00,69.0,-99.9,-100.00,West,261,-999.0,-999.0,-999,0.00,,,-99.99,,2013-08-08 12:52:00,
2013-08-08 09:32:00,69.0,-99.9,-100.00,West,261,-999.0,-999.0,-999,0.00,,,-99.99,,2013-08-08 13:32:00,
2013-08-08 09:43:00,69.0,-99.9,-100.00,West,261,-999.0,-999.0,-999,0.00,,,-99.99,,2013-08-08 13:43:00,
2013-08-08 09:52:00,70.0,-99.9,-100.00,West,261,-999.0,-999.0,-999,0.00,,,-99.99,,2013-08-08 13:52:00,
2013-08-08 10:32:00,70.0,-99.9,-100.00,West,261,-999.0,-999.0,-999,0.00,,,-99.99,,2013-08-08 14:32:00,
2013-08-08 10:44:00,70.0,-99.9,-100.00,West,261,-999.0,-999.0,-999,0.00,,,-99.99,,2013-08-08 14:44:00,
2013-08-08 10:52:00,71.0,-99.9,-100.00,West,261,-999.0,-999.0,-999,0.00,,,-99.99,,2013-08-08 14:52:00,
2013-08-08 11:33:00,71.0,-99.9,-100.00,West,261,-999.0,-999.0,-999,0.00,,,-99.99,,2013-08-08 15:33:00,
2013-08-08 11:43:00,71.0,-99.9,-100.00,West,261,-999.0,-999.0,-999,0.00,,,-99.99,,2013-08-08 15:43:00,
2013-08-08 11:52:00,73.0,-99.9,-100.00,South,177,-999.0,6.0,-999,0.00,,,-99.99,,2013-08-08 15:52:00,
2013-08-08 12:32:00,73.0,-99.9,-100.00,South,177,-999.0,6.0,-999,0.00,,,-99.99,,2013-08-08 16:32:00,
2013-08-08 12:42:00,73.0,-99.9,-100.00,South,177,-999.0,6.0,-999,0.00,,,-99.99,,2013-08-08 16:42:00,
2013-08-08 12:52:00,80.0,-99.9,-100.00,SW,218,3.0,9.0,-999,0.00,,,-99.99,,2013-08-08 16:52:00,
2013-08-08 13:32:00,80.0,-99.9,-100.00,SW,218,3.0,9.0,-999,0.00,,,-99.99,,2013-08-08 17:32:00,
2013-08-08 13:43:00,80.0,-99.9,-100.00,SW,218,3.0,9.0,-999,0.00,,,-99.99,,2013-08-08 17:43:00,
2013-08-08 13:52:00,80.0,-99.9,-100.00,SE,139,5.0,8.0,-999,0.00,,,-99.99,,2013-08-08 17:52:00,
2013-08-08 14:32:00,80.0,-99.9,-100.00,SE,139,5.0,8.0,-999,0.00,,,-99.99,,2013-08-08 18:32:00,
2013-08-08 14:43:00,80.0,-99.9,-100.00,SE,139,5.0,8.0,-999,0.00,,,-99.99,,2013-08-08 18:43:00,
2013-08-08 14:52:00,79.0,-99.9,-100.00,NW,309,-999.0,6.0,-999,0.00,,,-99.99,,2013-08-08 18:52:00,
2013-08-08 15:32:00,79.0,-99.9,-100.00,NW,309,-999.0,6.0,-999,0.00,,,-99.99,,2013-08-08 19:32:00,
2013-08-08 15:43:00,79.0,-99.9,-100.00,NW,309,-999.0,6.0,-999,0.00,,,-99.99,,2013-08-08 19:43:00,
2013-08-08 15:52:00,75.0,-99.9,-100.00,SW,225,-999.0,-999.0,-999,0.03,,,-99.99,,2013-08-08 19:52:00,
2013-08-08 16:32:00,75.0,-99.9,-100.00,SW,225,-999.0,-999.0,-999,0.03,,,-99.99,,2013-08-08 20:32:00,
2013-08-08 16:42:00,75.0,-99.9,-100.00,SW,225,-999.0,-999.0,-999,0.03,,,-99.99,,2013-08-08 20:42:00,
2013-08-08 17:35:00,75.0,-99.9,-100.00,ENE,72,-999.0,-999.0,-999,0.02,,,-99.99,,2013-08-08 21:35:00,
2013-08-08 17:46:00,75.0,-99.9,-100.00,ENE,72,-999.0,-999.0,-999,0.02,,,-99.99,,2013-08-08 21:46:00,
2013-08-08 17:52:00,76.0,-99.9,-100.00,ENE,72,-999.0,-999.0,-999,0.00,,,-99.99,,2013-08-08 21:52:00,
2013-08-08 18:50:00,76.0,-99.9,-100.00,ENE,72,-999.0,-999.0,-999,0.00,,,-99.99,,2013-08-08 22:50:00,
2013-08-08 18:52:00,75.0,-99.9,-100.00,ENE,72,-999.0,-999.0,-999,0.15,,,-99.99,,2013-08-08 22:52:00,
2013-08-08 19:37:00,75.0,-99.9,-100.00,ENE,72,-999.0,-999.0,-999,0.15,,,-99.99,,2013-08-08 23:37:00,
2013-08-08 19:51:00,75.0,-99.9,-100.00,ENE,72,-999.0,-999.0,-999,0.15,,,-99.99,,2013-08-08 23:51:00,
2013-08-08 19:52:00,74.0,-99.9,-100.00,ENE,72,-999.0,-999.0,-999,0.00,,,-99.99,,2013-08-08 23:52:00,
2013-08-08 20:36:00,74.0,-99.9,-100.00,ENE,72,-999.0,-999.0,-999,0.00,,,-99.99,,2013-08-09 00:36:00,
2013-08-08 20:48:00,74.0,-99.9,-100.00,ENE,72,-999.0,-999.0,-999,0.00,,,-99.99,,2013-08-09 00:48:00,
2013-08-08 20:52:00,72.0,-99.9,-100.00,WSW,240,-999.0,-999.0,-999,0.00,,,-99.99,,2013-08-09 00:52:00,
2013-08-08 21:39:00,72.0,-99.9,-100.00,WSW,240,-999.0,-999.0,-999,0.00,,,-99.99,,2013-08-09 01:39:00,
2013-08-08 21:48:00,72.0,-99.9,-100.00,WSW,240,-999.0,-999.0,-999,0.00,,,-99.99,,2013-08-09 01:48:00,
2013-08-08 22:52:00,71.0,-99.9,-100.00,WSW,240,-999.0,-999.0,-999,0.01,,,-99.99,,2013-08-09 02:52:00,
2013-08-08 23:36:00,71.0,-99.9,-100.00,WSW,240,-999.0,-999.0,-999,0.01,,,-99.99,,2013-08-09 03:36:00,
2013-08-08 23:52:00,71.0,-99.9,-100.00,WSW,240,-999.0,-999.0,-999,0.04,,,-99.99,,2013-08-09 03:52:00,